カタログに戻る

STARLINK-35191

運用中通信SSO
NORAD 65594·PAYLOAD·🇺🇸 United States

打ち上げ Sep 13, 2025 から Cape Canaveral Space Force Station

Loading…

次のパス (今後24時間)

TLE

最新Source: CelesTrak SupGP

元期: Sep 14, 2026, 21:14 UTC

1 65594C 25207C   26257.88520833  .01590200  00000+0  95579-1 0  2573
2 65594  97.2844 320.5261 0001538  71.0323 137.5563 15.10162268    10

AllMySatでSTARLINK-35191をリアルタイム追跡

Download on the App Store